Regional Weather Roundup
Issued by NWS

Home | Current Version | Previous Version | Graphics & Text | Print | Product List | Glossary On
Versions: 1 2 3 4 5 6 7 8 9 10 11 12 13 14 15 16 17 18 19 20 21 22 23 24 25 26 27 28 29 30 31 32 33 34 35 36 37 38 39 40 41 42 43 44 45 46 47 48 49 50
669
ASUS45 KBOU 231907
RWRCO

WEATHER ROUNDUP FOR COLORADO
NATIONAL WEATHER SERVICE DENVER/BOULDER CO
100 PM MDT THU MAR 23 2017

NOTE: "FAIR" INDICATES FEW OR NO CLOUDS BELOW 12000 FEET WITH NO
SIGNIFICANT WEATHER AND/OR OBSTRUCTIONS TO VISIBILITY.

COZ001>005-013-030-031-232000-
...NORTHWEST COLORADO...

CITY           SKY/WX    TMP DP  RH WIND       PRES   REMARKS
CRAIG          FAIR      61  17  18 S26G35    29.69F
HAYDEN         FAIR      57  18  21 SW22G28   29.70F
MEEKER         PTSUNNY   57  23  26 S26G36    29.72S
MOUNT WERNER   NOT AVBL
STEAMBOAT SPGS PTSUNNY   55  19  25 SW7G18    29.70F
WALDEN         NOT AVBL
$$

COZ006>008-011-232000-
...WEST CENTRAL VALLEYS...

CITY           SKY/WX    TMP DP  RH WIND       PRES   REMARKS
GRAND JUNCTION PTSUNNY   53  32  44 SE10      29.72F
MONTROSE       CLOUDY    53  30  41 N21G32    29.73S
EAGLE          PTSUNNY   50  25  37 S15       29.74F
RIFLE          FAIR      56  31  38 W29G35    29.72S
DELTA          PTSUNNY   56  32  40 W22G31    29.71F
NUCLA          LGT RAIN  41  36  81 SE6       29.86R
$$

COZ017>023-064>068-232000-
...SOUTHWEST COLORADO...

CITY           SKY/WX    TMP DP  RH WIND       PRES   REMARKS
DURANGO        LGT RAIN  41  37  86 W14       29.80F FOG
CORTEZ         LGT RAIN  43  38  82 S6        29.81F
PAGOSA SPRINGS PTSUNNY   46  33  59 SW5       29.80F
TELLURIDE      NOT AVBL
WOLF CREEK PAS LGT SNOW  28  28 100 S21G32    29.93F WCI  15
$$

COZ009-010-012-014-032>034-037-058>063-232000-
...CENTRAL COLORADO...

CITY           SKY/WX    TMP DP  RH WIND       PRES   REMARKS
ASPEN          PTSUNNY   53  18  25 S13G20    29.73F
BUENA VISTA    PTSUNNY   55   7  15 S13G32    29.74F
COPPER MTN     NOT AVBL
BERTHOUD PASS  PTSUNNY   32  23  69 SW18G31   29.90F WCI  20
COTTONWOOD PAS PTSUNNY   50   9  18 SW8       29.82F
GUNNISON       FAIR      51  25  36 S18       29.76F
KREMMLING      FAIR      63  21  20 W17G24    29.73F
LEADVILLE      FAIR      43   9  24 S18G25    29.81F
MONARCH PASS   PTSUNNY   34  12  40 SW35G48   29.99S WCI  19
SALIDA         PTSUNNY   57  13  18 SW16G24   29.83F
SUNLIGHT       LGT SNOW  30  27  86 SW8       29.89S WCI  23
WILKERSON PASS FAIR      45  12  26 SW14G26   29.90F
$$

COZ069>075-232000-
...SAN LUIS VALLEY/SANGRE DE CRISTO MOUNTAINS...

CITY           SKY/WX    TMP DP  RH WIND       PRES   REMARKS
ALAMOSA        FAIR      59  16  18 SW17G32   29.77F
LA VETA PASS   NOT AVBL
SAGUACHE       FAIR      57  14  18 SW23G38   29.79F
$$

COZ035-036-038>040-232000-
...NORTHERN COLORADO FRONT RANGE...

CITY           SKY/WX    TMP DP  RH WIND       PRES   REMARKS
DENVER INTL AP FAIR      75  13   9 S20G30    29.60F
DMNS CITY PARK   N/A     72  13  10 SE12G18   29.59F
AURORA         MOSUNNY   71  12  10 S14G23    29.62F
FRONT RANGE AP MOSUNNY   73  16  11 W8G18     29.63F
ERIE MUNI ARPT FAIR      75   9   8 SW12G22   29.58F
BOULDER MUN AP FAIR      73  16  11 SW17G28   29.57F
CENTENNIAL     FAIR      70   7   8 S24G35    29.62F
BROOMFIELD     MOSUNNY   73  14  10 SW21G31   29.62F
FORT COLLINS   FAIR      73  20  13 S7        29.58F
LONGMONT       FAIR      75  15  10 SW8       29.58F
$$

COZ041-046-047-076>085-087-088-232000-
...PIKES PEAK/PALMER DIVIDE AND SOUTHERN FOOTHILLS...

CITY           SKY/WX    TMP DP  RH WIND       PRES   REMARKS
COLO. SPRINGS  FAIR      70  13  11 SW28G35   29.69F
A. F. ACADEMY  FAIR      67  11  11 SW24G37   29.68F
SCHRIEVER AFB  FAIR      69  14  12 SW26G39   29.70F
ELLICOTT         N/A    N/A N/A N/A SW18G33   29.68F
FALCON         FAIR      66  11  12 SW22G33   29.74F
FORT CARSON    NOT AVBL
LIMON          FAIR      73  12   9 SW22G40   29.66F
MONUMENT HILL  FAIR      64  14  14 SW22G28   29.73F
TRINIDAD       FAIR      77   8   7 S35G44    29.64F
$$

COZ042>045-048>051-090-091-232000-
...NORTHEAST COLORADO...

CITY           SKY/WX    TMP DP  RH WIND       PRES   REMARKS
GREELEY ARPT   FAIR      74  20  13 SW10      29.58
AKRON          FAIR      74  25  16 VRB5      29.62F
BURLINGTON     FAIR      75  36  24 S15       29.63F
WRAY           NOT AVBL
STERLING       FAIR      68  37  32 CALM      29.60F
HOLYOKE        FAIR      77  43  29 CALM      29.61F
FORT MORGAN    FAIR      71  31  22 SE10      29.61F
$$

COZ086-089-092>099-232000-
...SOUTHEAST COLORADO...

CITY           SKY/WX    TMP DP  RH WIND       PRES   REMARKS
PUEBLO         FAIR      78  15   9 SW21G32   29.60F
LA JUNTA       FAIR      83  17   8 SW20G30   29.60F
LAMAR          FAIR      86  19   8 S29G41    29.57F
SPRINGFIELD      N/A     81  18   9 S29G54    29.67F
$$




USA.gov is the U.S. government's official web portal to all federal, state and local government web resources and services.